Weather History for El Paso, TX

Change the Weather History Date:

Tuesday, September 16, 2014

  Actual Average Record
Temperature  
Mean Temperature 73 °F 76 °F  
Max Temperature 80 °F 88 °F 101 °F (1956)
Min Temperature 65 °F 63 °F 49 °F (1879)
Degree Days  
Heating Degree Days 0 0  
Month to date heating degree days 0 0  
Since 1 July heating degree days 0 0  
Cooling Degree Days 8 11  
Month to date cooling degree days 184 202  
Year to date cooling degree days 2403 2131  
Growing Degree Days 22 (Base 50)    
Moisture  
Dew Point 64 °F    
Average Humidity 74    
Maximum Humidity 93    
Minimum Humidity 54    
Precipitation  
Precipitation 0.61 in 0.05 in 0.73 in (1974)
Month to date precipitation 1.35 0.88  
Year to date precipitation 4.48 7.20  
Snow  
Snow 0.00 in - - ()
Month to date snowfall 0.0  
Since 1 July snowfall 0.0  
Since 1 September snowfall 0.0  
Snow Depth 0.00 in    
Sea Level Pressure  
Sea Level Pressure 30.01 in    
Wind  
Wind Speed 10 mph (NNE)    
Max Wind Speed 18 mph    
Max Gust Speed 23 mph    
Visibility 9 miles    
Events Rain    
T = Trace of Precipitation, MM = Missing Value Source: NWS Daily Summary

Daily Weather History Graph

Daily Weather History Graph

Search for Another Location

Airport:

Trip Planner

Search our weather history database for the weather conditions in past years. The results will help you decide how hot, cold, wet, or windy it might be!

Date:

Astronomy

Sep. 16, 2014 Rise Set
Actual Time 6:50 AM MDT 7:09 PM MDT
Civil Twilight 6:25 AM MDT 7:34 PM MDT
Nautical Twilight 5:57 AM MDT 8:02 PM MDT
Astronomical Twilight 5:28 AM MDT 8:31 PM MDT
Moon 12:17 AM MDT (9/16) 2:20 PM MDT (9/16)
Length of Visible Light 13h 08m
Length of Day
12h 19m
Last Quarter, 43% of the Moon is Illuminated
Sep 16
Last Quarter
Sep 24
New
Oct 1
First Quarter
Oct 8
Full
Oct 15
Last Quarter

Hourly Weather History & Observations

Time (MDT) Temp. Heat Index Dew Point Humidity Pressure Visibility Wind Dir Wind Speed Gust Speed Precip Events Conditions
12:51 AM 70.0 °F - 64.9 °F 84% 30.02 in 7.0 mi North 4.6 mph - 0.04 in Rain Light Rain
1:51 AM 69.1 °F - 64.9 °F 87% 30.01 in 10.0 mi NE 5.8 mph - 0.02 in Rain Light Rain
2:51 AM 68.0 °F - 64.4 °F 88% 30.20 in 10.0 mi ENE 6.9 mph - N/A Rain Light Rain
3:51 AM 66.9 °F - 63.0 °F 87% 30.01 in 10.0 mi ENE 3.5 mph - 0.02 in Rain Light Rain
4:04 AM 66.9 °F - 63.0 °F 87% 30.19 in 8.0 mi ENE 4.6 mph - 0.01 in Rain Light Rain
4:51 AM 66.9 °F - 63.0 °F 87% 29.99 in 8.0 mi North 4.6 mph - 0.04 in Rain Light Rain
5:21 AM 66.0 °F - 64.0 °F 93% 30.19 in 3.0 mi SW 5.8 mph - 0.07 in Rain Heavy Rain
5:32 AM 64.9 °F - 64.0 °F 97% 30.19 in 1.5 mi West 6.9 mph - 0.22 in Rain Heavy Rain
5:43 AM 66.0 °F - 64.0 °F 93% 30.19 in 2.5 mi NW 9.2 mph - 0.29 in Rain Rain
5:51 AM 66.0 °F - 64.0 °F 93% 30.01 in 3.0 mi Variable 6.9 mph - 0.32 in Rain Rain
6:01 AM 66.0 °F - 64.0 °F 93% 30.19 in 6.0 mi NNW 9.2 mph - 0.02 in Rain Light Rain
6:51 AM 66.0 °F - 64.0 °F 93% 30.01 in 6.0 mi North 11.5 mph - 0.17 in Rain Light Rain
7:51 AM 66.0 °F - 64.0 °F 93% 30.03 in 7.0 mi North 12.7 mph - 0.03 in   Overcast
8:51 AM 66.9 °F - 64.0 °F 90% 30.03 in 10.0 mi North 11.5 mph - N/A   Overcast
9:51 AM 68.0 °F - 64.9 °F 90% 30.03 in 10.0 mi North 10.4 mph - N/A   Overcast
10:40 AM 70.0 °F - 64.9 °F 84% 30.21 in 10.0 mi North 10.4 mph - 0.00 in   Overcast
10:51 AM 70.0 °F - 64.0 °F 81% 30.03 in 10.0 mi North 11.5 mph - 0.00 in   Overcast
11:51 AM 72.0 °F - 64.9 °F 78% 30.01 in 10.0 mi North 8.1 mph - N/A   Overcast
12:51 PM 73.9 °F - 64.9 °F 73% 29.99 in 10.0 mi North 8.1 mph - 0.00 in   Overcast
1:51 PM 75.9 °F - 64.9 °F 69% 29.95 in 10.0 mi North 3.5 mph - 0.00 in   Mostly Cloudy
2:51 PM 80.1 °F 81.2 °F 62.1 °F 54% 29.92 in 10.0 mi East 11.5 mph - N/A   Mostly Cloudy
3:51 PM 79.0 °F - 62.1 °F 56% 29.91 in 10.0 mi ESE 8.1 mph - N/A   Mostly Cloudy
4:51 PM 79.0 °F - 62.1 °F 56% 29.88 in 10.0 mi ENE 8.1 mph - N/A   Mostly Cloudy
5:51 PM 79.0 °F - 62.1 °F 56% 29.87 in 10.0 mi NE 10.4 mph - N/A   Overcast
6:51 PM 77.0 °F - 63.0 °F 62% 29.88 in 10.0 mi NNE 10.4 mph - N/A   Overcast
7:51 PM 75.9 °F - 63.0 °F 64% 29.90 in 10.0 mi North 12.7 mph - N/A   Overcast
8:51 PM 71.6 °F - 66.2 °F 83% 30.09 in 10.0 mi North 15.0 mph - N/A   Mostly Cloudy
9:51 PM 70.0 °F - 64.9 °F 84% 29.94 in 10.0 mi North 16.1 mph - N/A   Overcast
10:51 PM 70.0 °F - 64.0 °F 81% 29.94 in 10.0 mi North 13.8 mph - N/A   Overcast
11:51 PM 69.1 °F - 64.0 °F 84% 29.91 in 10.0 mi North 13.8 mph - N/A   Overcast